Flag for Canada Weather past 2 weeks in Regina, Saskatchewan, Canada

Now
34 °F

Clear.


Feels Like: 29 °F
Forecast: 37 / 64 °F
Wind: 6 mph from Southeast

Location: Regina Weather Station

Current Time: Sep 15, 2014 at 3:33:35 AM

Latest Report: Sep 15, 2014 at 3:00 AM


Visibility: 15 mi

Pressure: 30.20 "Hg

Humidity: 93%

Dew point: 32 °F

Location of ReginaLocation

Historic Weather in Regina — Graph

°F

Regina temperature yesterday

Maximum temperature yesterday: 55 °F (at 1:00 PM)
Minimum temperature yesterday: 28 °F (at 6:00 AM)
Average temperature yesterday: 43 °F

Past Weeks' High & Low Weather Summary

 TemperatureHumidityPressure
High79 °F (Sep 7, 2:00 PM)100% (Aug 31, 8:00 AM)30.62 "Hg (Aug 31, 8:00 AM)
Low28 °F (Sep 12, 3:00 AM)34% (Sep 7, 2:00 PM)29.59 "Hg (Sep 8, 1:00 AM)
Average51 °F75%30.06 "Hg
* Reported Aug 31 2:00 AM — Sep 15 2:00 AM, Regina, Weather by CustomWeather, © 2014

Note: Actual official high and low records may vary slightly from our data, if they occured in-between our weather recording intervals... More about our weather records

Advertising

Regina weather history for previous 24 hours

 ConditionsComfort  
Time TempWeatherWind HumidityBarometerVisibility
2:00 AM
Sep 15
34 °FClear.6 mph93%30.20 "Hg15 mi
1:00 AM36 °FClear.6 mph87%30.20 "Hg15 mi
12:00 AM39 °FClear.6 mph75%30.20 "Hg15 mi
11:00 PM
Sep 14
39 °FClear.7 mph81%30.20 "Hg15 mi
10:00 PM43 °FClear.6 mph76%30.20 "Hg15 mi
9:00 PM46 °FClear.5 mph66%30.20 "Hg15 mi
8:00 PM50 °FPassing clouds.2 mph58%30.19 "Hg15 mi
7:00 PM54 °FScattered clouds.No wind54%30.19 "Hg15 mi
6:00 PM54 °FPartly sunny.2 mph54%30.19 "Hg15 mi
5:00 PM55 °FPartly sunny.2 mph47%30.19 "Hg15 mi
4:00 PM55 °FPartly sunny.6 mph44%30.19 "Hg15 mi
3:00 PM55 °FPartly sunny.6 mph44%30.19 "Hg15 mi
2:00 PM55 °FPartly sunny.8 mph44%30.19 "Hg15 mi
1:00 PM55 °FPartly sunny.12 mph47%30.20 "Hg15 mi
12:00 PM54 °FPartly sunny.7 mph51%30.21 "Hg15 mi
11:00 AM52 °FPartly sunny.6 mph62%30.22 "Hg15 mi
10:00 AM46 °FPartly sunny.5 mph76%30.23 "Hg15 mi
9:00 AM39 °FScattered clouds.3 mph93%30.24 "Hg15 mi
8:00 AM34 °FBroken clouds.2 mph93%30.24 "Hg15 mi
7:00 AM28 °FPartly sunny.5 mph100%30.24 "Hg15 mi
6:00 AM28 °FPassing clouds.3 mph93%30.23 "Hg15 mi
5:00 AM30 °FClear.No wind100%30.22 "Hg12 mi
4:00 AM30 °FClear.3 mph100%30.22 "Hg15 mi
3:00 AM30 °FClear.2 mph100%30.21 "Hg12 mi
Weather by CustomWeather, © 2014

See weather overviewHow to use our weather pages